Friday Harbor, WA
on Thursday, December 13, 2012

Thursday
Previous Day Next Day
Daily Summary
 ActualAverageRecord
Temperature
Mean Temperature °F °F  
Max Temperature 44°F 44°F 53°F (1998)
Min Temperature 39°F 36°F 23°F (2000)
Degree Days
Heating Degree Days 24    
Moisture
Dew Point 38°F   
Average Humidity 87    
Maximum Humidity 93    
Minimum Humidity 79    
Precipitation
Precipitation 0.00 in in in ()
Wind
Wind Speed 5 mph   
Max Wind Speed 16 mph   
Max Gust Speed mph   
Visibility 10 miles   
Events Rain   
Averages and records for this station are not official NWS values.
Key: T is trace of precipitation, MM is missing value
Source: NWS Daily Summary
Seasonal Weather Averages
Time(PST)TemperatureDew PointHumidity Pressure Visibility Wind DirectionWind SpeedGust SpeedPrecipitationEvents Conditions
12:53 AM 41.0°F 37.0°F 86% 30.03 in 10.0 miles NNW 3.5 mph - N/A   Overcast
1:53 AM 39.0°F 36.0°F 89% 30.04 in 10.0 miles Calm Calm - N/A   Overcast
2:53 AM 39.0°F 37.0°F 93% 30.05 in 10.0 miles Calm Calm - N/A   Overcast
3:46 AM 39.2°F 37.4°F 93% 30.05 in 10.0 miles Calm Calm - 0.00 in Rain Light Rain
3:53 AM 39.9°F 37.9°F 93% 30.05 in 9.0 miles Calm Calm - 0.00 in Rain Light Rain
4:11 AM 39.2°F 37.4°F 93% 30.04 in 10.0 miles Calm Calm - 0.00 in   Overcast
4:53 AM 39.9°F 37.9°F 93% 30.03 in 10.0 miles Calm Calm - 0.00 in   Overcast
5:53 AM 41.0°F 37.9°F 89% 30.03 in 10.0 miles Calm Calm - N/A   Overcast
6:25 AM 41.0°F 37.4°F 87% 30.02 in 10.0 miles Calm Calm - N/A   Overcast
6:40 AM 42.8°F 39.2°F 87% 30.02 in 10.0 miles East 3.5 mph - N/A   Overcast
6:53 AM 42.1°F 39.0°F 89% 30.02 in 10.0 miles ESE 8.1 mph - N/A   Overcast
7:53 AM 42.1°F 39.0°F 89% 30.01 in 10.0 miles ESE 5.8 mph - N/A   Overcast
8:53 AM 42.1°F 39.0°F 89% 29.99 in 10.0 miles SE 9.2 mph - N/A   Overcast
9:53 AM 43.0°F 37.9°F 82% 29.99 in 10.0 miles ESE 9.2 mph - N/A   Overcast
10:53 AM 44.1°F 37.9°F 79% 29.97 in 10.0 miles SE 10.4 mph - N/A   Scattered Clouds
11:53 AM 43.0°F 37.9°F 82% 29.95 in 10.0 miles ESE 11.5 mph - N/A   Overcast
12:50 PM 42.8°F 37.4°F 81% 29.91 in 10.0 miles ESE 11.5 mph - N/A   Overcast
12:53 PM 43.0°F 37.9°F 82% 29.91 in 10.0 miles East 9.2 mph - N/A   Overcast
1:53 PM 43.0°F 37.9°F 82% 29.88 in 10.0 miles ESE 12.7 mph - N/A   Overcast
5:53 PM 43.0°F 37.9°F 82% 29.82 in 9.0 miles SE 12.7 mph - 0.00 in Rain Light Rain
6:53 PM 43.0°F 39.0°F 86% 29.81 in 8.0 miles ESE 11.5 mph - 0.00 in Rain Light Rain
7:53 PM 42.1°F 39.0°F 89% 29.80 in 10.0 miles ESE 15.0 mph - 0.00 in Rain Light Rain
8:53 PM 42.1°F 39.0°F 89% 29.79 in 10.0 miles ESE 13.8 mph - 0.00 in Rain Light Rain
10:32 PM 42.8°F 39.2°F 87% 29.78 in 9.0 miles SE 12.7 mph - 0.00 in Rain Light Rain
10:53 PM 42.1°F 39.0°F 89% 29.78 in 8.0 miles ESE 16.1 mph - 0.00 in Rain Light Rain
11:53 PM 42.1°F 39.0°F 89% 29.78 in 10.0 miles ESE 11.5 mph - 0.00 in Rain Light Rain
Moon Phase
Dec. 13 Dec. 20 Dec. 28 Jan. 04 Jan. 11
Sunrise:07:56 AM (PST) Moon Rise:08:08 AM (PST)12/13
Sunset:04:16 PM (PST) Moon Set:05:07 PM (PST)12/13

Copyright © 2014 The Weather Underground, Inc.